Waarnemingen

Advertentie
Mijn weer
Aboyne, Groot Brittannië (3080): temperatuur & dauwpunt: 09.08.2018 00:00:00 - 15.08.2018 00:00:00 (BST)Aboyne, Groot Brittannië (3080): temperatuur -20cm & temperatuur -100cm: 09.08.2018 00:00:00 - 15.08.2018 00:00:00 (BST)Aboyne, Groot Brittannië (3080): windsnelheid & windstoten: 09.08.2018 00:00:00 - 15.08.2018 00:00:00 (BST)Aboyne, Groot Brittannië (3080): windrichting: 09.08.2018 00:00:00 - 15.08.2018 00:00:00 (BST)Aboyne, Groot Brittannië (3080): luchtdruk: 09.08.2018 00:00:00 - 15.08.2018 00:00:00 (BST)Aboyne, Groot Brittannië (3080): zicht: 09.08.2018 00:00:00 - 15.08.2018 00:00:00 (BST)Aboyne, Groot Brittannië (3080): neerslag: 09.08.2018 00:00:00 - 15.08.2018 00:00:00 (BST)
Datum & Tijd tt [°C] td [°C] tt -20cm [°C] tt -100cm [°C] ff [km/u] ff [kn] fx [km/u] fx [kn] dd ppp [hPa] vv [km] rr [mm]
15.08.2018 00:00:00 12,2 9,8 - - 2 1 - - NO 1008,8 45 -
14.08.2018 23:00:00 13,2 9,8 - - 5 3 - - NO 1008,7 50 0,0
14.08.2018 22:00:00 15,9 10,4 - - 8 4 - - NW 1008,2 50 0,0
14.08.2018 21:00:00 16,7 10,3 - - 9 5 - - W 1008,3 50 0,0
14.08.2018 20:00:00 18,1 10,6 - - 16 9 46 25 W 1007,9 45 0,0
14.08.2018 19:00:00 19,9 11,7 - - 24 13 - - WZW 1006,9 50 0,0
14.08.2018 18:00:00 20,7 13,6 - - 24 13 - - WZW 1007,2 50 0,0
14.08.2018 17:00:00 20,9 14,2 - - 21 11 - - WZW 1007,3 45 0,0
14.08.2018 16:00:00 19,5 13,5 - - 18 10 - - ZW 1007,7 50 0,0
14.08.2018 15:00:00 19,8 15,4 - - 4 2 - - N 1007,9 35 0,0
14.08.2018 14:00:00 16,4 14,3 - - 8 4 - - WZW 1008,7 30 0,6
14.08.2018 13:00:00 18,0 12,4 - - 15 8 - - W 1008,4 50 0,0
14.08.2018 12:00:00 17,9 12,3 - - 15 8 - - W 1008,6 50 0,0
14.08.2018 11:00:00 17,8 13,8 - - 5 3 - - O 1008,4 50 0,0
14.08.2018 10:00:00 14,6 12,9 15,4 14,7 2 1 - - ZO 1008,8 45 0,0
14.08.2018 09:00:00 13,0 12,9 - - 2 1 - - ZZO 1008,8 45 0,0
14.08.2018 08:00:00 10,8 10,8 - - 4 2 - - ONO 1009,2 35 0,0
14.08.2018 07:00:00 9,0 9,0 - - 2 1 - - N 1009,4 0,6 0,0
14.08.2018 06:00:00 7,6 7,5 - - 2 1 - - WNW 1009,4 4,0 0,0
14.08.2018 05:00:00 8,5 8,4 - - 2 1 - - W 1009,3 - 0,2
14.08.2018 04:00:00 9,0 8,8 - - 5 3 - - WNW 1009,2 0,2 0,0
14.08.2018 03:00:00 9,9 9,7 - - 2 1 - - N 1009,7 5 0,0
14.08.2018 02:00:00 11,0 10,9 - - 4 2 - - OZO 1009,8 5 0,0
14.08.2018 01:00:00 11,4 11,4 - - 8 4 - - OZO 1009,7 8 0,0
14.08.2018 00:00:00 11,3 11,3 - - 8 4 - - O 1009,4 3,9 0,0
13.08.2018 23:00:00 11,0 10,9 - - 8 4 - - O 1009,4 0,2 0,0
13.08.2018 22:00:00 11,4 10,2 - - 8 4 - - O 1009,3 0,6 0,0
13.08.2018 21:00:00 14,0 12,6 - - 5 3 - - ONO 1009,2 30 0,0
13.08.2018 20:00:00 15,2 13,3 - - 8 4 - - OZO 1008,9 30 0,0
13.08.2018 19:00:00 15,2 13,1 - - 9 5 - - OZO 1008,7 40 0,0
13.08.2018 18:00:00 15,2 12,7 - - 5 3 - - OZO 1008,9 40 0,0
13.08.2018 17:00:00 15,2 12,9 - - 4 2 - - O 1009,0 40 0,0
13.08.2018 16:00:00 14,9 12,3 - - 5 3 - - O 1009,3 45 0,0
13.08.2018 15:00:00 14,5 12,1 - - 4 2 - - ONO 1009,3 35 0,0
13.08.2018 14:00:00 14,1 12,5 - - 5 3 - - OZO 1009,4 29 0,0
13.08.2018 13:00:00 13,3 12,8 - - 9 5 - - O 1009,3 6 0,0
13.08.2018 12:00:00 13,1 12,6 - - 9 5 - - O 1009,2 5 0,0
13.08.2018 11:00:00 13,1 12,6 - - 9 5 - - O 1009,1 6 0,0
13.08.2018 10:00:00 12,7 12,4 15,7 14,9 5 3 - - O 1009,0 5 0,6
13.08.2018 09:00:00 12,4 12,1 - - 4 2 - - ZO 1009,0 4,6 0,8
13.08.2018 08:00:00 12,1 11,8 - - 4 2 - - O 1008,9 6 0,6
13.08.2018 07:00:00 11,9 11,7 - - 4 2 - - ONO 1008,5 6 1,0
13.08.2018 06:00:00 11,9 11,6 - - 4 2 - - ONO 1008,4 5 1,2
13.08.2018 05:00:00 12,0 11,6 - - 4 2 - - O 1008,4 5 0,8
13.08.2018 04:00:00 12,2 11,9 - - 5 3 - - O 1008,5 4,9 0,8
13.08.2018 03:00:00 12,2 11,9 - - 5 3 - - ONO 1008,8 4,2 1,6
13.08.2018 02:00:00 12,2 11,9 - - 4 2 - - ONO 1008,9 4,2 0,2
13.08.2018 01:00:00 12,2 11,9 - - 5 3 - - ONO 1009,1 14 0,2
13.08.2018 00:00:00 11,9 11,8 - - 2 1 - - ZZO 1009,3 3,3 0,8
12.08.2018 23:00:00 11,7 11,5 - - 4 2 - - W 1009,4 2,3 0,2
12.08.2018 22:00:00 11,6 11,4 - - 2 1 - - W 1009,6 4,4 0,4
12.08.2018 21:00:00 11,7 11,2 - - 2 1 - - Z 1009,7 3,0 0,2
12.08.2018 20:00:00 11,8 11,0 - - 9 5 - - ONO 1009,7 4,1 0,4
12.08.2018 19:00:00 12,7 12,0 - - 13 7 - - O 1009,7 3,3 0,2
12.08.2018 18:00:00 14,2 11,2 - - 15 8 - - O 1009,5 40 0,0
12.08.2018 17:00:00 14,4 11,9 - - 11 6 - - OZO 1009,5 35 0,0
12.08.2018 16:00:00 14,2 11,7 - - 15 8 - - OZO 1009,8 29 0,0
12.08.2018 15:00:00 13,8 11,9 - - 16 9 - - O 1010,1 30 0,2
12.08.2018 14:00:00 13,9 12,4 - - 16 9 - - O 1010,2 24 0,2
12.08.2018 13:00:00 13,6 11,9 - - 18 10 - - O 1010,2 13 0,0
12.08.2018 12:00:00 14,1 12,1 - - 15 8 - - O 1010,2 30 0,2
12.08.2018 11:00:00 13,0 11,0 - - 15 8 - - O 1010,4 11 0,0
12.08.2018 10:00:00 13,3 10,4 15,7 15,0 13 7 - - O 1010,4 45 0,0
12.08.2018 09:00:00 12,7 11,3 - - 8 4 - - O 1010,4 11 0,0
12.08.2018 08:00:00 12,2 11,0 - - 8 4 - - O 1010,5 40 0,0
12.08.2018 07:00:00 11,6 10,9 - - 4 2 - - ONO 1010,7 30 0,0
12.08.2018 06:00:00 10,8 10,2 - - 2 1 - - N 1010,9 40 0,0
12.08.2018 05:00:00 10,2 9,7 - - 2 1 - - WZW 1011,1 30 0,0
12.08.2018 04:00:00 9,8 9,3 - - 4 2 - - NNW 1011,8 40 0,0
12.08.2018 03:00:00 9,9 9,0 - - 4 2 - - NW 1012,5 35 0,0
12.08.2018 02:00:00 10,1 8,7 - - 2 1 - - NNW 1012,9 45 0,0
12.08.2018 01:00:00 9,7 7,4 - - 2 1 - - O 1013,4 50 0,0
12.08.2018 00:00:00 10,9 8,7 - - 4 2 - - NO 1013,9 50 0,0
11.08.2018 23:00:00 11,7 9,3 - - 8 4 - - O 1014,3 50 0,0
11.08.2018 22:00:00 12,3 8,8 - - 2 1 - - ZO 1014,8 45 0,0
11.08.2018 21:00:00 14,1 7,5 - - 8 4 - - Z 1014,9 50 0,0
11.08.2018 20:00:00 15,4 7,3 - - 5 3 - - Z 1014,8 50 0,0
11.08.2018 19:00:00 16,7 7,2 - - 5 3 - - W 1014,8 40 0,0
11.08.2018 18:00:00 17,4 7,3 - - 5 3 - - WNW 1014,9 50 0,0
11.08.2018 17:00:00 17,9 8,4 - - 2 1 - - ZZW 1015,3 50 0,0
11.08.2018 16:00:00 17,3 9,2 - - 13 7 - - O 1015,7 50 0,0
11.08.2018 15:00:00 16,2 9,5 - - 11 6 - - O 1016,5 45 0,0
11.08.2018 14:00:00 16,0 9,5 - - 9 5 - - O 1016,8 35 0,0
11.08.2018 13:00:00 15,0 9,2 - - 9 5 - - O 1017,1 40 0,0
11.08.2018 12:00:00 14,5 9,3 - - 8 4 - - O 1017,5 45 0,0
11.08.2018 11:00:00 13,5 8,3 - - 4 2 - - ZZO 1017,8 45 0,0
11.08.2018 10:00:00 13,0 9,2 15,7 15,0 4 2 - - WNW 1018,0 45 0,0
11.08.2018 09:00:00 11,3 8,8 - - 8 4 - - NW 1018,5 50 0,0
11.08.2018 08:00:00 9,6 8,2 - - 11 6 - - W 1018,7 35 0,0
11.08.2018 07:00:00 9,1 8,3 - - 8 4 - - WNW 1018,6 45 0,0
11.08.2018 06:00:00 9,0 8,6 - - 11 6 - - W 1018,1 45 0,0
11.08.2018 05:00:00 8,3 8,0 - - 5 3 - - NW 1017,9 29 0,0
11.08.2018 04:00:00 9,0 8,9 - - 4 2 - - WNW 1018,0 23 0,0
11.08.2018 03:00:00 8,9 8,8 - - 2 1 - - W 1018,1 11 0,0
11.08.2018 02:00:00 8,5 8,1 - - 4 2 - - NNW 1018,2 17 0,0
11.08.2018 01:00:00 9,7 9,4 - - 0 0 - - N 1017,9 14 0,0
11.08.2018 00:00:00 9,9 9,7 - - 4 2 - - WZW 1017,8 22 0,0
10.08.2018 23:00:00 9,8 9,3 - - 0 0 - - N 1017,4 19 0,0
10.08.2018 22:00:00 10,1 9,8 - - 4 2 - - W 1016,9 45 0,0
10.08.2018 21:00:00 11,0 10,2 - - 4 2 - - WNW 1016,1 35 0,0
10.08.2018 20:00:00 12,2 9,9 - - 5 3 - - WZW 1015,5 45 0,0
10.08.2018 19:00:00 12,9 10,7 - - 5 3 - - W 1015,0 50 0,0
10.08.2018 18:00:00 12,2 10,6 - - 2 1 - - O 1014,9 50 1,0
10.08.2018 17:00:00 10,3 9,3 - - 4 2 - - O 1015,2 7 3,8
10.08.2018 16:00:00 10,7 9,8 - - 4 2 - - WZW 1014,4 17 7,2
10.08.2018 15:00:00 15,0 8,2 - - 9 5 - - N 1012,9 50 0,0
10.08.2018 14:00:00 17,2 8,8 - - 8 4 - - NNO 1012,1 50 0,2
10.08.2018 13:00:00 13,8 9,6 - - 15 8 - - NNW 1012,2 11 0,2
10.08.2018 12:00:00 16,0 7,0 - - 8 4 - - OZO 1011,6 45 0,0
10.08.2018 11:00:00 15,0 6,1 - - 5 3 - - WZW 1011,5 50 0,0
10.08.2018 10:00:00 13,9 7,3 15,9 15,2 9 5 - - W 1011,5 45 0,0
10.08.2018 09:00:00 11,5 6,7 - - 13 7 - - W 1011,6 45 0,0
10.08.2018 08:00:00 9,3 7,0 - - 5 3 - - WNW 1011,6 50 0,0
10.08.2018 07:00:00 8,0 5,9 - - 9 5 - - NW 1011,6 50 0,0
10.08.2018 06:00:00 7,4 5,9 - - 8 4 - - WNW 1011,7 50 0,0
10.08.2018 05:00:00 6,8 5,7 - - 5 3 - - W 1011,5 50 0,0
10.08.2018 04:00:00 6,7 5,1 - - 8 4 - - NW 1011,4 45 0,0
10.08.2018 03:00:00 7,7 6,0 - - 11 6 - - W 1011,6 45 0,0
10.08.2018 02:00:00 7,8 5,6 - - 9 5 - - WNW 1011,8 50 0,0
10.08.2018 01:00:00 10,1 6,8 - - 4 2 - - WNW 1011,7 50 0,0
10.08.2018 00:00:00 10,0 7,5 - - 9 5 - - W 1011,7 45 0,0
09.08.2018 23:00:00 9,2 6,5 - - 5 3 - - NW 1011,7 50 0,0
09.08.2018 22:00:00 10,0 6,0 - - 5 3 - - WZW 1011,3 50 0,0
09.08.2018 21:00:00 12,7 6,5 - - 11 6 - - WZW 1011,1 45 0,0
09.08.2018 20:00:00 15,9 6,4 - - 13 7 - - WNW 1010,5 50 0,0
09.08.2018 19:00:00 15,4 5,7 - - 16 9 - - WZW 1010,4 50 0,0
09.08.2018 18:00:00 17,0 5,3 - - 18 10 - - ZW 1010,3 50 0,0
09.08.2018 17:00:00 18,8 6,1 - - 18 10 - - WZW 1010,1 50 0,0
09.08.2018 16:00:00 17,3 6,3 - - 15 8 - - W 1010,1 35 0,0
09.08.2018 15:00:00 18,6 5,9 - - 18 10 - - ZW 1009,6 45 0,0
09.08.2018 14:00:00 18,5 5,7 - - 21 11 - - ZW 1009,5 30 0,0
09.08.2018 13:00:00 17,2 6,4 - - 15 8 - - ZW 1009,7 35 0,0
09.08.2018 12:00:00 16,5 6,3 - - 21 11 - - WZW 1009,7 28 0,0
09.08.2018 11:00:00 15,9 6,7 - - 21 11 - - ZW 1009,5 40 0,0
09.08.2018 10:00:00 14,5 6,8 16,0 15,2 24 13 - - ZW 1010,0 45 0,0
09.08.2018 09:00:00 12,8 7,1 - - 24 13 - - ZW 1010,2 40 0,0
09.08.2018 08:00:00 6,0 5,8 - - 4 2 - - NW 1010,8 40 0,2
09.08.2018 07:00:00 4,5 4,5 - - 4 2 - - WZW 1010,8 28 0,0
09.08.2018 06:00:00 1,1 1,1 - - 4 2 - - ZZO 1010,6 14 0,0
09.08.2018 05:00:00 0,6 0,4 - - 5 3 - - OZO 1010,7 6 0,0
09.08.2018 04:00:00 2,0 1,9 - - 4 2 - - NNO 1010,4 0,4 0,0
09.08.2018 03:00:00 1,9 1,3 - - 2 1 - - ONO 1010,3 26 0,0
09.08.2018 02:00:00 3,0 2,7 - - 4 2 - - OZO 1010,0 30 0,0
09.08.2018 01:00:00 4,1 3,0 - - 2 1 - - O 1009,7 40 0,0
09.08.2018 00:00:00 4,1 2,4 - - 2 1 - - N 1009,5 40 0,0

tt = temperatuur
td = dauwpunt
tt -20cm = temperatuur -20cm
tt -100cm = temperatuur -100cm
ff = windsnelheid
fx = windstoten
dd = windrichting
ppp = luchtdruk
vv = zicht
rr = neerslag

Weerstations in de omgeving